BD-2-G7

Last updated on May 9, 2019, 3:02 a.m. UTC

1 41586U 16037A   19128.56839049 -.00000353  00000-0  00000+0 0  9997
2 41586   0.8422  36.2683 0009063   9.9244 135.0122  1.00266699 10741
UTC
Height (km)
Latitude
Longitude
Inclination
Orbital Period
UTC large
Height (km)
Speed (km/s)
/
Latitude / Longitude
Inclination (degrees)
Orbital Period (minutes)
Azimuth
Elevation
Range (km)
Doppler Factor
iOS Compass Heading
iOS Angle

Next 30 passes for location: Hong Kong

Rise time Rise Azimuth (degrees) Set time Set Azimuth (degrees) Duration Max altitude (degrees)

No matching passes for this satellites